GW6177 Weather Reports


time (UTC)temp
C
wind
direction
speed
KPH
gust
KPH
rain 1hr
cm
rain 24hr
cm
rain mn
cm
humidity
%
barometer
mb
20260510203258 22 275 3.2 9.7 0.00 0.05 0.05 30 1018.2
20260510202758 22 223 4.8 8.0 0.00 0.05 0.05 32 1018.2
20260510202254 22 332 1.6 4.8 0.00 0.05 0.05 31 1018.3
20260510201751 22 310 6.4 8.0 0.00 0.05 0.05 31 1018.3
20260510201248 22 278 8.0 8.0 0.00 0.05 0.05 33 1018.5
20260510200744 22 207 6.4 6.4 0.00 0.05 0.05 30 1018.5
20260510200242 21 252 3.2 6.4 0.00 0.05 0.05 33 1018.7
20260510195738 21 262 8.0 9.7 0.00 0.05 0.05 30 1018.7
20260510195235 21 237 3.2 8.0 0.00 0.05 0.05 35 1018.7
20260510194734 21 185 4.8 9.7 0.00 0.05 0.05 30 1018.8
20260510194232 21 297 3.2 4.8 0.00 0.05 0.05 38 1018.6
20260510193727 21 0 3.2 4.8 0.00 0.05 0.05 31 1018.5
20260510193222 21 72 0.0 8.0 0.00 0.05 0.05 29 1018.7
20260510192718 21 0 4.8 6.4 0.00 0.05 0.05 36 1018.8
20260510192213 21 53 3.2 6.4 0.00 0.05 0.05 38 1018.5
20260510191709 21 13 4.8 9.7 0.00 0.05 0.05 29 1018.5
20260510191206 21 355 4.8 4.8 0.00 0.05 0.05 37 1018.4
20260510190703 21 203 3.2 8.0 0.00 0.05 0.05 28 1018.5
20260510190201 21 0 3.2 6.4 0.00 0.05 0.05 38 1018.4
20260510185657 21 338 3.2 14.5 0.00 0.05 0.05 34 1018.4
20260510185156 21 235 11.3 12.9 0.00 0.05 0.05 34 1018.4
20260510184652 21 99 3.2 11.3 0.00 0.05 0.05 33 1018.2
20260510184148 20 284 6.4 11.3 0.00 0.05 0.05 37 1018.5
20260510183644 20 212 1.6 6.4 0.00 0.05 0.05 36 1018.3
20260510183139 20 277 1.6 8.0 0.00 0.05 0.05 34 1018.1
20260510182636 20 322 1.6 11.3 0.00 0.05 0.05 34 1018.3
20260510182131 20 275 4.8 11.3 0.00 0.05 0.05 33 1018.3
20260510181628 20 216 4.8 8.0 0.00 0.05 0.05 40 1018.6
20260510181125 20 257 4.8 6.4 0.00 0.05 0.05 40 1018.5
20260510180621 20 275 1.6 9.7 0.00 0.05 0.05 33 1018.5
20260510180119 20 103 9.7 9.7 0.00 0.05 0.05 35 1018.6
20260510175614 20 87 3.2 4.8 0.00 0.05 0.05 38 1018.5
20260510175110 19 152 0.0 4.8 0.00 0.05 0.05 37 1018.6
20260510174608 20 232 8.0 9.7 0.00 0.05 0.05 36 1018.6
20260510174105 20 12 4.8 12.9 0.00 0.05 0.05 44 1018.6
20260510173601 20 305 1.6 6.4 0.00 0.05 0.05 46 1018.8
20260510173058 20 29 3.2 6.4 0.00 0.05 0.05 47 1018.7
20260510172553 19 336 6.4 14.5 0.00 0.05 0.05 44 1018.9
20260510172049 20 348 6.4 9.7 0.00 0.05 0.05 40 1018.9
20260510171546 20 356 3.2 9.7 0.00 0.05 0.05 43 1018.9
20260510171044 20 73 8.0 11.3 0.00 0.05 0.05 43 1019.1
20260510170540 20 190 0.0 6.4 0.00 0.05 0.05 40 1019.0
20260510170037 20 39 3.2 8.0 0.00 0.05 0.05 45 1019.0
20260510165532 20 102 3.2 8.0 0.00 0.05 0.05 43 1018.9
20260510165023 20 23 4.8 6.4 0.00 0.05 0.05 49 1018.8
20260510164520 19 87 3.2 6.4 0.00 0.05 0.05 43 1018.9
20260510164016 20 228 3.2 8.0 0.00 0.05 0.05 42 1018.9
20260510163506 20 105 3.2 9.7 0.00 0.05 0.05 42 1018.9
20260510163001 19 298 0.0 9.7 0.00 0.05 0.05 41 1019.0
20260510162458 20 129 4.8 11.3 0.00 0.05 0.05 43 1019.1
20260510161954 20 6 3.2 6.4 0.00 0.05 0.05 47 1019.1
20260510161444 20 109 6.4 11.3 0.00 0.05 0.05 46 1019.2
20260510160941 20 283 4.8 6.4 0.00 0.05 0.05 47 1019.0
20260510160438 20 60 9.7 9.7 0.00 0.05 0.05 51 1018.8
20260510155936 19 207 3.2 6.4 0.00 0.05 0.05 52 1019.0
20260510155434 19 20 4.8 8.0 0.00 0.05 0.05 53 1018.9
20260510154931 19 34 6.4 8.0 0.00 0.05 0.05 50 1018.9
20260510154427 19 108 3.2 8.0 0.00 0.05 0.05 54 1018.6
20260510153925 18 9 3.2 11.3 0.00 0.05 0.05 54 1018.6
20260510153422 18 288 12.9 14.5 0.00 0.05 0.05 57 1018.6
20260510152919 19 182 0.0 4.8 0.00 0.05 0.05 52 1018.4
20260510152417 18 78 3.2 6.4 0.00 0.05 0.05 58 1018.5
20260510151913 18 50 0.0 9.7 0.00 0.05 0.05 55 1018.3
20260510151410 18 67 3.2 6.4 0.00 0.05 0.05 57 1018.2
20260510150906 18 236 3.2 8.0 0.00 0.05 0.05 53 1018.2
20260510150402 18 353 0.0 6.4 0.00 0.05 0.05 56 1018.2
20260510145858 18 46 1.6 8.0 0.00 0.05 0.05 56 1018.2
20260510145355 17 296 0.0 8.0 0.00 0.05 0.05 59 1018.2
20260510144852 17 275 6.4 6.4 0.00 0.05 0.05 53 1017.9
20260510144349 17 266 3.2 6.4 0.00 0.05 0.05 59 1017.8
20260510143848 17 354 3.2 6.4 0.00 0.05 0.05 57 1018.0
20260510143345 17 71 1.6 6.4 0.00 0.05 0.05 58 1018.1
20260510142842 17 239 0.0 3.2 0.00 0.05 0.05 55 1018.0
20260510142338 17 51 9.7 12.9 0.00 0.05 0.05 61 1017.8
20260510141835 17 249 0.0 6.4 0.00 0.05 0.05 63 1017.8
20260510141333 16 359 3.2 6.4 0.00 0.05 0.05 60 1017.7
20260510140830 16 64 0.0 3.2 0.00 0.05 0.05 59 1017.6
20260510140326 16 251 3.2 8.0 0.00 0.05 0.05 58 1017.7
20260510135825 16 84 4.8 4.8 0.00 0.05 0.05 62 1017.6
20260510135321 15 168 0.0 3.2 0.00 0.05 0.05 62 1017.5
20260510134819 15 221 6.4 6.4 0.00 0.05 0.05 62 1017.7
20260510134316 15 353 3.2 4.8 0.00 0.05 0.05 61 1017.5
20260510133811 15 23 0.0 8.0 0.00 0.05 0.05 61 1017.3
20260510133308 15 106 3.2 4.8 0.00 0.05 0.05 67 1017.5
20260510132803 15 1 3.2 3.2 0.00 0.05 0.05 68 1017.4
20260510132305 14 42 3.2 4.8 0.00 0.05 0.05 67 1017.3
20260510131758 13 325 0.0 9.7 0.00 0.05 0.05 64 1017.4
20260510131256 13 32 3.2 8.0 0.00 0.05 0.05 68 1017.3
20260510130752 13 283 3.2 6.4 0.00 0.05 0.05 69 1017.3
20260510130249 13 291 0.0 6.4 0.00 0.05 0.05 70 1017.1
20260510125746 13 79 0.0 4.8 0.00 0.05 0.05 73 1017.0
20260510125241 13 167 1.6 4.8 0.00 0.05 0.05 72 1017.1
20260510124738 12 167 1.6 3.2 0.00 0.05 0.05 71 1017.0
20260510124236 12 316 3.2 4.8 0.00 0.05 0.05 70 1016.6
20260510123731 12 336 0.0 3.2 0.00 0.05 0.05 71 1016.7
20260510123227 12 89 0.0 3.2 0.00 0.05 0.05 73 1016.9
20260510122724 12 278 0.0 3.2 0.00 0.05 0.05 75 1016.5
20260510122220 12 310 1.6 3.2 0.00 0.05 0.05 74 1016.5
20260510121716 12 279 3.2 3.2 0.00 0.05 0.05 75 1016.5
20260510121214 12 272 0.0 4.8 0.00 0.05 0.05 73 1016.3
20260510120711 12 292 3.2 3.2 0.00 0.05 0.05 74 1016.2
20260510120208 12 286 0.0 3.2 0.00 0.05 0.05 75 1016.0
20260510115703 11 101 1.6 3.2 0.00 0.05 0.05 75 1015.7
20260510115202 11 264 3.2 4.8 0.00 0.05 0.05 77 1015.6
20260510114657 11 277 0.0 3.2 0.00 0.05 0.05 79 1015.8
20260510114154 11 283 3.2 8.0 0.05 0.05 0.05 80 1015.6
20260510113649 11 322 1.6 4.8 0.05 0.05 0.05 84 1015.6
20260510113146 10 200 0.0 3.2 0.00 0.05 0.05 88 1015.4
20260510112643 10 354 1.6 3.2 0.00 0.05 0.05 93 1015.3
20260510112140 10 0 0.0 1.6 0.00 0.05 0.05 96 1015.6
20260510111636 10 329 0.0 1.6 0.00 0.05 0.05 97 1015.2
20260510111132 10 34 3.2 3.2 0.00 0.05 0.05 97 1015.2
20260510110627 10 36 1.6 1.6 0.00 0.05 0.05 97 1015.0
20260510110125 10 280 0.0 1.6 0.00 0.05 0.05 96 1015.0
20260510105620 10 31 1.6 3.2 0.00 0.05 0.05 96 1015.0
20260510105115 10 71 1.6 3.2 0.00 0.05 0.05 96 1014.8
20260510104612 10 69 0.0 1.6 0.00 0.05 0.05 96 1014.8
20260510104109 10 55 1.6 3.2 0.00 0.05 0.05 96 1014.6
20260510103606 10 74 0.0 3.2 0.00 0.05 0.05 96 1014.7
20260510103101 10 45 1.6 1.6 0.00 0.05 0.05 96 1014.6
20260510102557 10 44 0.0 1.6 0.00 0.05 0.05 96 1014.6
20260510102053 10 33 0.0 1.6 0.00 0.05 0.05 96 1014.5
20260510101551 10 13 0.0 1.6 0.00 0.05 0.05 96 1014.5
20260510101050 10 34 0.0 1.6 0.00 0.05 0.05 96 1014.6
20260510100545 10 293 0.0 0.0 0.00 0.05 0.05 95 1014.4
20260510100043 10 289 0.0 1.6 0.00 0.05 0.05 95 1014.4
20260510095539 10 277 0.0 1.6 0.00 0.05 0.05 95 1013.8
20260510095038 10 283 0.0 1.6 0.00 0.05 0.05 95 1013.8
20260510094533 10 32 0.0 3.2 0.00 0.05 0.05 94 1013.6
20260510094028 10 71 1.6 3.2 0.00 0.05 0.05 93 1013.5
20260510093524 11 73 0.0 3.2 0.00 0.05 0.05 92 1013.3
20260510093021 11 63 1.6 3.2 0.00 0.05 0.05 91 1013.3
20260510092518 11 51 3.2 3.2 0.00 0.05 0.05 90 1013.1
20260510092017 11 49 1.6 1.6 0.00 0.05 0.05 88 1013.1
20260510091515 12 70 1.6 3.2 0.00 0.05 0.05 84 1012.7
20260510091010 12 336 0.0 1.6 0.00 0.05 0.05 83 1012.5
20260510090508 12 25 1.6 4.8 0.00 0.05 0.05 83 1012.5
20260510090004 12 119 0.0 3.2 0.00 0.05 0.05 83 1012.3
20260510085458 12 344 1.6 3.2 0.00 0.05 0.05 85 1012.4
20260510084954 12 283 3.2 3.2 0.00 0.05 0.05 87 1012.2
20260510084452 12 264 1.6 3.2 0.00 0.05 0.05 88 1012.2
20260510083948 12 353 0.0 3.2 0.00 0.05 0.05 91 1012.1
20260510083445 12 232 0.0 3.2 0.00 0.05 0.05 93 1011.9
20260510082940 12 277 0.0 6.4 0.00 0.05 0.05 95 1012.0
20260510082438 12 276 0.0 3.2 0.00 0.05 0.05 96 1012.2
20260510081937 12 328 0.0 1.6 0.00 0.05 0.05 96 1012.3
20260510081433 12 310 1.6 1.6 0.00 0.05 0.05 96 1012.4
20260510080930 12 299 0.0 1.6 0.00 0.05 0.05 96 1012.2
20260510080428 12 317 0.0 3.2 0.00 0.05 0.05 96 1012.2
20260510075925 12 290 1.6 1.6 0.00 0.05 0.05 96 1012.2
20260510075424 12 283 0.0 0.0 0.00 0.05 0.05 96 1012.1
20260510074920 12 61 1.6 1.6 0.00 0.05 0.05 96 1011.9
20260510074417 12 328 3.2 3.2 0.00 0.05 0.05 96 1012.1
20260510073914 12 58 0.0 3.2 0.00 0.05 0.05 95 1011.8
20260510073409 12 6 0.0 3.2 0.00 0.05 0.05 95 1011.8
20260510072906 12 321 0.0 3.2 0.00 0.05 0.05 95 1011.8
20260510072402 12 38 0.0 0.0 0.00 0.05 0.05 95 1012.1
20260510071858 12 35 0.0 3.2 0.00 0.05 0.05 95 1011.9
20260510071354 12 50 0.0 3.2 0.00 0.05 0.05 95 1012.0
20260510070853 12 308 0.0 3.2 0.00 0.05 0.05 95 1012.1
20260510070350 12 336 0.0 1.6 0.00 0.05 0.05 95 1012.0
20260510065850 12 326 0.0 1.6 0.00 0.05 0.05 96 1011.9
20260510065347 13 308 1.6 3.2 0.00 0.05 0.05 96 1012.0
20260510064843 13 317 1.6 4.8 0.00 0.05 0.05 96 1011.7
20260510064342 13 345 0.0 1.6 0.00 0.05 0.05 96 1011.7
20260510063838 13 11 1.6 3.2 0.00 0.05 0.05 96 1011.7
20260510063334 13 352 0.0 1.6 0.00 0.05 0.05 96 1011.9
20260510062831 13 336 0.0 3.2 0.00 0.05 0.05 96 1012.1
20260510062326 13 20 1.6 3.2 0.00 0.05 0.05 95 1011.9
20260510061822 13 20 1.6 1.6 0.00 0.05 0.05 95 1011.9
20260510061319 13 0 3.2 3.2 0.00 0.05 0.05 95 1012.2
20260510060815 13 341 0.0 3.2 0.00 0.05 0.05 95 1012.1
20260510060312 13 34 0.0 3.2 0.00 0.05 0.05 95 1012.3
20260510055809 13 20 1.6 3.2 0.00 0.05 0.05 95 1012.4
20260510055308 13 13 0.0 1.6 0.00 0.05 0.05 95 1012.2
20260510054807 13 339 3.2 3.2 0.00 0.05 0.05 95 1012.4
20260510054304 13 345 3.2 3.2 0.00 0.05 0.05 94 1012.3
20260510053804 13 67 3.2 4.8 0.00 0.05 0.05 94 1012.4
20260510053259 13 7 1.6 3.2 0.00 0.05 0.05 94 1012.3
20260510052756 14 6 1.6 3.2 0.00 0.05 0.05 94 1012.6
20260510052251 14 13 0.0 0.0 0.05 0.05 0.05 93 1012.3
20260510051748 14 69 1.6 3.2 0.13 0.05 0.05 93 1012.3
20260510051245 14 32 3.2 3.2 0.18 0.05 0.05 93 1012.5
20260510050742 14 69 3.2 3.2 0.30 0.03 0.03 93 1012.6
20260510050239 15 209 0.0 3.2 0.48 0.00 0.00 92 1012.5
20260510045735 15 63 3.2 4.8 0.43 0.25 0.25 92 1012.5
20260510045232 15 56 3.2 4.8 0.43 0.23 0.23 92 1013.0
20260510044729 15 8 0.0 6.4 0.53 0.18 0.18 91 1013.0
20260510044227 15 157 3.2 6.4 0.53 0.15 0.15 91 1013.2
20260510043721 15 3 0.0 8.0 0.30 0.10 0.10 89 1013.3
20260510043219 15 283 3.2 9.7 0.18 0.05 0.05 88 1013.1
20260510042716 16 259 4.8 6.4 0.05 0.05 0.05 86 1012.9
20260510042212 16 280 6.4 8.0 0.00 0.03 0.03 86 1012.6
20260510041709 16 290 4.8 8.0 0.00 0.03 0.03 86 1012.4
20260510041206 16 250 3.2 9.7 0.05 0.03 0.03 85 1012.1
20260510040703 16 238 3.2 16.1 0.13 0.03 0.03 85 1011.9
20260510040200 17 256 8.0 17.7 0.00 0.00 0.00 79 1011.6
20260510035655 16 338 4.8 4.8 0.00 0.00 0.00 82 1010.7
20260510035151 16 355 0.0 3.2 0.00 0.00 0.00 81 1010.0
20260510034647 16 27 1.6 1.6 0.00 0.00 0.00 86 1009.8
20260510034145 15 66 1.6 3.2 0.00 0.00 0.00 86 1009.7
20260510033641 15 41 1.6 3.2 0.00 0.00 0.00 86 1009.5
20260510033139 15 45 0.0 3.2 0.00 0.00 0.00 85 1009.6
20260510032635 15 72 3.2 3.2 0.00 0.00 0.00 85 1009.4
20260510032130 15 69 3.2 3.2 0.00 0.00 0.00 85 1009.6
20260510031625 15 73 1.6 3.2 0.00 0.00 0.00 84 1009.5
20260510031122 15 76 1.6 3.2 0.00 0.00 0.00 84 1009.5
20260510030617 15 87 1.6 3.2 0.00 0.00 0.00 84 1009.2
20260510030115 15 75 3.2 3.2 0.00 0.00 0.00 84 1009.4
20260510025612 15 84 3.2 3.2 0.00 0.00 0.00 85 1009.3
20260510025109 15 73 3.2 3.2 0.00 0.00 0.00 83 1009.4
20260510024606 15 79 3.2 3.2 0.00 0.00 0.00 82 1009.1
20260510024102 15 81 1.6 3.2 0.00 0.00 0.00 81 1009.1
20260510023558 15 50 1.6 1.6 0.00 0.00 0.00 82 1009.1
20260510023056 15 81 1.6 3.2 0.00 0.00 0.00 82 1009.1
20260510022555 15 55 1.6 3.2 0.00 0.00 0.00 82 1009.0
20260510022055 15 82 1.6 3.2 0.00 0.00 0.00 82 1009.1
20260510021552 15 56 3.2 3.2 0.00 0.00 0.00 80 1008.8
20260510021050 15 80 1.6 3.2 0.00 0.00 0.00 80 1008.9
20260510020544 15 78 1.6 3.2 0.00 0.00 0.00 81 1008.6
20260510020040 15 72 1.6 3.2 0.00 0.00 0.00 80 1008.5
20260510015536 16 81 1.6 3.2 0.00 0.00 0.00 81 1008.7
20260510015031 16 81 1.6 3.2 0.00 0.00 0.00 81 1008.5
20260510014528 16 83 1.6 3.2 0.00 0.00 0.00 80 1008.3
20260510014026 16 71 1.6 3.2 0.00 0.00 0.00 81 1008.4
20260510013520 16 76 3.2 3.2 0.00 0.00 0.00 79 1008.5
20260510013016 16 52 3.2 3.2 0.00 0.00 0.00 77 1008.4
20260510012510 17 85 1.6 3.2 0.00 0.00 0.00 77 1008.4
20260510012006 17 62 1.6 3.2 0.00 0.00 0.00 75 1008.4
20260510011501 17 75 1.6 3.2 0.00 0.00 0.00 73 1008.3
20260510010957 17 62 3.2 3.2 0.00 0.00 0.00 76 1007.9
20260510010454 17 39 1.6 1.6 0.00 0.00 0.00 76 1008.1
20260510005951 18 55 0.0 1.6 0.00 0.00 0.00 74 1008.1
20260510005447 18 37 0.0 3.2 0.00 0.00 0.00 73 1007.8
20260510004945 18 53 0.0 1.6 0.00 0.00 0.00 72 1007.9
20260510004441 19 57 1.6 1.6 0.00 0.00 0.00 68 1007.8
20260510003940 19 48 1.6 1.6 0.00 0.00 0.00 67 1007.9
20260510003436 20 49 0.0 3.2 0.00 0.00 0.00 63 1007.7
20260510002936 20 54 3.2 3.2 0.00 0.00 0.00 62 1007.6
20260510002433 20 44 0.0 3.2 0.00 0.00 0.00 62 1007.6
20260510001929 21 9 0.0 1.6 0.00 0.00 0.00 59 1007.6
20260510001427 21 53 0.0 1.6 0.00 0.00 0.00 59 1007.6
20260510000925 21 62 0.0 1.6 0.00 0.00 0.00 57 1007.7
20260510000421 22 50 0.0 1.6 0.00 0.00 0.00 57 1007.7
20260509235917 22 29 0.0 1.6 0.00 0.00 0.00 54 1007.5
20260509235414 22 37 0.0 1.6 0.00 0.00 0.00 53 1007.4
20260509234910 23 17 3.2 4.8 0.00 0.00 0.00 47 1007.3
20260509234407 25 333 0.0 1.6 0.00 0.00 0.00 48 1007.3
20260509233905 26 333 0.0 4.8 0.00 0.00 0.00 45 1007.6
20260509233403 26 321 0.0 1.6 0.00 0.00 0.00 42 1007.5
20260509232858 26 49 0.0 1.6 0.00 0.00 0.00 43 1007.5
20260509232356 26 55 0.0 3.2 0.00 0.00 0.00 40 1007.4
20260509231852 26 36 0.0 3.2 0.00 0.00 0.00 44 1007.4
20260509231349 26 319 1.6 3.2 0.00 0.00 0.00 45 1007.3
20260509230847 26 291 3.2 6.4 0.00 0.00 0.00 38 1007.4
20260509230343 26 319 1.6 4.8 0.00 0.00 0.00 40 1007.1
20260509225839 26 0 0.0 4.8 0.00 0.00 0.00 42 1007.4
20260509225336 26 277 3.2 4.8 0.00 0.00 0.00 44 1007.2
20260509224832 26 310 4.8 6.4 0.00 0.00 0.00 39 1007.3
20260509224328 26 246 1.6 3.2 0.00 0.00 0.00 42 1007.4
20260509223825 26 272 3.2 6.4 0.00 0.00 0.00 38 1007.2
20260509223322 26 252 1.6 6.4 0.00 0.00 0.00 44 1007.3
20260509222819 26 283 0.0 6.4 0.00 0.00 0.00 41 1007.3
20260509222314 26 171 0.0 3.2 0.00 0.00 0.00 44 1007.3
20260509221810 26 313 3.2 8.0 0.00 0.00 0.00 46 1007.2
20260509221308 26 269 3.2 8.0 0.00 0.00 0.00 41 1007.2
20260509220802 26 309 6.4 9.7 0.00 0.00 0.00 44 1007.2
20260509220259 26 359 4.8 6.4 0.00 0.00 0.00 38 1007.3
20260509215754 26 251 3.2 6.4 0.00 0.00 0.00 39 1007.2
20260509215251 26 271 6.4 6.4 0.00 0.00 0.00 40 1007.1
20260509214748 26 310 6.4 8.0 0.00 0.00 0.00 37 1007.3
20260509214245 26 259 4.8 8.0 0.00 0.00 0.00 37 1007.3
20260509213742 26 229 4.8 8.0 0.00 0.00 0.00 37 1007.2
20260509213237 26 313 3.2 6.4 0.00 0.00 0.00 39 1007.2
20260509212735 26 296 4.8 6.4 0.00 0.00 0.00 41 1007.2
20260509212232 25 307 4.8 8.0 0.00 0.00 0.00 42 1007.2
20260509211728 26 259 6.4 9.7 0.00 0.00 0.00 40 1007.4
20260509211225 26 299 4.8 8.0 0.00 0.00 0.00 38 1007.1
20260509210721 26 261 4.8 4.8 0.00 0.00 0.00 47 1007.2
20260509210219 25 248 6.4 8.0 0.00 0.00 0.00 42 1007.3
20260509205718 25 214 4.8 11.3 0.00 0.00 0.00 46 1007.4
20260509205213 25 232 3.2 6.4 0.00 0.00 0.00 47 1007.1
20260509204709 25 311 6.4 8.0 0.00 0.00 0.00 47 1007.4
20260509204206 25 236 4.8 11.3 0.00 0.00 0.00 44 1007.6
20260509203701 25 151 3.2 9.7 0.00 0.00 0.00 47 1007.6